LEMUR-2-PETERWEBSTER (43124 NORAD) Tracking and Keplerian Element Data

This shows tracking and keplerian element data for the satellite.

Feedback or suggestion? Click here.




ElementValue
Catalog43124
NameLEMUR-2-PETERWEBSTER
Epoch Orbit29664
Epoch Day127.03231788
Epoch Year2023
RAAN217.4898
Inclination97.3292
Eccentricity0.0015996
Argument of Perigee261.0895
Mean Anonmoly98.858
Mean Motion16.12847107
Decay Rate0.02264124
L11 43124U 18004P 23127.03231788 .02264124 59065-2 21931-2 0 9990
L22 43124 97.3292 217.4898 0015996 261.0895 98.8580 16.12847107296640



Live tracking and technical data element details for LEMUR-2-PETERWEBSTER (NORAD 43124). LEMUR-2-PETERWEBSTER can be tracked NOW for your location showing map with azimuth and elevation plus other details from your city location.







IsCatalogInMostPopularTable: catalog: 43124, numindb: 481
Update: records affected: 1



GetName: 43124 LEMUR-2-PETERWEBSTER

Hit Count: updated at: Fri, 16 May 2025 11:45:46 GMT